sat.trackr.live / text

‹ back to catalog

STARLINK-3241

NORAD 49745 · 2021-115X

PAYLOAD ACTIVE UNKNOWN

§ Identity

Operator
Country
US
Launch date
2021-12-02
Launch site
AFETR
Launch vehicle
Mass (kg)
RCS (m²)

Purposes: comms

External: N2YO · Heavens-Above · Gunter

§ Orbital elements

Epoch: 2026-09-12T17:55:53.383296Z

Period
94.01 min
Inclination
53.1626°
Eccentricity
0.0001092
Mean motion
15.31697923 rev/d
Perigee alt
470.0 km
Apogee alt
471.5 km
Semi-major
6,848.9 km
B*
1.4113e-5
RAAN
16.0691°
Arg perigee
75.8232°
Mean anomaly
284.2891°
Rev number
26,395

§ Raw data

STARLINK-32411 49745U 21115X   26255.74714564  .00000073  00000+0  14113-4 0  99902 49745  53.1626  16.0691 0001092  75.8232 284.2891 15.31697923263951

JSON: /api/v1/satellites/49745 · /tle

For live sub-satellite position, see the globe view (requires WebGL).

§ Visibility from observer

Set your observer location to see the next 7 days of passes ≥ 10°. The values pass through the URL so the page stays shareable.

No JS? Fill the form by hand. The geolocation button needs JavaScript.